20050109,000010,434188,31.400703,-121.978528,11.9,14.920,33.021,40.664,144.86,0.0,2.256,14.671,14.641, NaN,24.464,   NaN,15.78,1012.19,100.00,79.77,0.0,1.6,7.7,8.3,189.6,191.5,6.9,7.5,NaN, NaN,16.6,205.7,173.0,1105228810,1105228810,1,1.2,000010,000010,186.9,31.400825,-121.978488,0.06,NaN,NaN,14.924, NaN,NaN,NaN, NaN, NaN
20050109,000041,434219,31.400490,-121.978510,12.0,14.922,33.028,40.674,142.50,0.0,2.294,14.671,14.641, NaN,24.469,   NaN,15.78,1012.27,74.72,16.06,2.8,4.5,7.5,8.3,190.8,192.5,6.7,7.5,NaN, NaN,16.4,163.7,182.5,1105228841,1105228841,1,1.3,000040,000041,186.4,31.400603,-121.978480,-0.33,NaN,NaN,14.926, NaN,NaN,NaN, NaN, NaN
20050109,000110,434249,31.400282,-121.978510,11.9,14.923,33.026,40.673,138.62,0.0,2.275,14.671,14.641, NaN,24.467,   NaN,15.78,1012.26,100.00,41.68,3.2,5.8,7.5,8.1,192.1,194.7,6.7,7.4,NaN, NaN,17.4,137.1,174.0,1105228871,1105228870,1,1.7,000070,000070,191.2,31.400400,-121.978468,-0.14,NaN,NaN,14.927, NaN,NaN,NaN, NaN, NaN
20050109,000140,434279,31.400078,-121.978518,11.9,14.922,33.030,40.676,135.79,0.0,2.237,14.672,14.643, NaN,24.470,   NaN,15.82,1012.26,100.00,16.07,0.4,3.4,8.1,8.6,191.9,194.9,7.3,7.9,NaN, NaN,17.7,242.7,212.3,1105228901,1105228900,1,1.8,000100,000100,190.6,31.400188,-121.978471,-0.04,NaN,NaN,14.926, NaN,NaN,NaN, NaN, NaN
20050109,000210,434308,31.399863,-121.978493,12.0,14.925,33.029,40.677,134.27,0.0,2.256,14.673,14.644, NaN,24.469,   NaN,15.87,1012.28,100.00,16.11,0.7,1.7,8.6,9.0,192.7,193.5,7.8,8.2,NaN, NaN,17.8,159.7,156.5,1105228930,1105228930,1,1.8,000130,000130,190.5,31.399978,-121.978458,-0.15,NaN,NaN,14.929, NaN,NaN,NaN, NaN, NaN
20050109,000241,434340,31.399675,-121.978536,11.9,14.927,33.030,40.680,136.30,0.0,2.275,14.674,14.645, NaN,24.469,   NaN,15.86,1012.27,100.00,32.96,359.7,2.1,8.4,8.7,191.1,193.6,7.7,8.0,NaN, NaN,17.2,178.6,217.4,1105228961,1105228961,1,1.4,000161,000161,191.6,31.399790,-121.978485,0.16,NaN,NaN,14.931, NaN,NaN,NaN, NaN, NaN
20050109,000310,434368,31.399488,-121.978541,11.9,14.927,33.028,40.678,139.42,0.0,2.275,14.678,14.648, NaN,24.468,   NaN,15.85,1012.29,100.00,33.30,359.3,2.3,8.1,8.4,190.6,193.8,7.4,7.7,NaN, NaN,17.9,167.7,215.3,1105228991,1105228990,1,1.5,000190,000190,190.6,31.399602,-121.978500,-0.10,NaN,NaN,14.931, NaN,NaN,NaN, NaN, NaN
20050109,000341,434399,31.399280,-121.978571,12.0,14.927,33.029,40.679,137.82,0.0,2.275,14.679,14.648, NaN,24.468,   NaN,15.83,1012.30,94.24,16.09,359.0,2.4,8.0,8.4,190.4,194.0,7.2,7.7,NaN, NaN,17.7,197.7,220.0,1105229021,1105229021,1,1.3,000220,000221,189.9,31.399382,-121.978525,-0.15,NaN,NaN,14.931, NaN,NaN,NaN, NaN, NaN
20050109,000411,434429,31.399053,-121.978576,12.0,14.926,33.032,40.682,136.62,0.0,2.294,14.679,14.648, NaN,24.471,   NaN,15.81,1012.37,99.95,16.09,2.2,4.3,7.7,8.3,193.2,195.4,7.0,7.6,NaN, NaN,17.2,258.9,219.3,1105229051,1105229051,1,2.0,000251,000251,187.9,31.399160,-121.978526,-0.24,NaN,NaN,14.930, NaN,NaN,NaN, NaN, NaN
20050109,000440,434458,31.398843,-121.978551,11.9,14.925,33.033,40.682,137.50,0.0,2.275,14.680,14.649, NaN,24.472,   NaN,15.78,1012.35,99.92,16.07,2.1,4.0,7.2,7.9,194.1,196.0,6.4,7.2,NaN, NaN,18.0,159.0,143.4,1105229081,1105229080,1,2.4,000280,000280,194.7,31.398947,-121.978501,-0.07,NaN,NaN,14.929, NaN,NaN,NaN, NaN, NaN
20050109,000511,434490,31.398622,-121.978613,12.0,14.925,33.030,40.679,138.29,0.0,2.294,14.678,14.648, NaN,24.470,   NaN,15.76,1012.33,99.90,16.06,357.3,0.6,7.3,7.5,191.1,194.7,6.5,6.8,NaN, NaN,17.0,126.1,150.9,1105229111,1105229111,1,2.4,000310,000311,192.4,31.398718,-121.978555,0.12,NaN,NaN,14.929, NaN,NaN,NaN, NaN, NaN
20050109,000541,434520,31.398375,-121.978631,12.0,14.922,33.037,40.683,143.07,0.0,2.275,14.676,14.647, NaN,24.475,   NaN,15.75,1012.30,99.88,16.04,359.8,1.8,7.7,7.6,192.0,194.2,6.8,6.8,NaN, NaN,17.7,196.8,158.2,1105229142,1105229141,1,2.2,000341,000341,186.7,31.398483,-121.978598,-0.24,NaN,NaN,14.926, NaN,NaN,NaN, NaN, NaN
20050109,000611,434549,31.398127,-121.978655,12.0,14.920,33.042,40.687,146.94,0.0,2.294,14.674,14.645, NaN,24.480,   NaN,15.73,1012.28,99.89,16.05,5.6,5.9,7.5,7.7,193.7,194.3,6.6,6.8,NaN, NaN,16.6,129.9,147.8,1105229171,1105229171,1,2.1,000370,000371,187.1,31.398230,-121.978608,-0.08,NaN,NaN,14.924, NaN,NaN,NaN, NaN, NaN
20050109,000640,434579,31.397855,-121.978671,12.2,14.920,33.035,40.679,148.41,0.0,2.294,14.673,14.644, NaN,24.474,   NaN,15.72,1012.28,99.89,16.03,3.3,5.6,7.5,7.7,192.0,194.9,6.6,6.7,NaN, NaN,16.6,122.0,145.5,1105229201,1105229201,1,2.8,000400,000401,192.2,31.397953,-121.978613,-0.09,NaN,NaN,14.924, NaN,NaN,NaN, NaN, NaN
20050109,000712,434610,31.397575,-121.978713,11.9,14.920,33.035,40.680,147.57,0.0,2.294,14.672,14.643, NaN,24.475,   NaN,15.72,1012.26,99.89,16.02,357.4,2.3,7.6,7.6,188.8,193.7,6.6,6.6,NaN, NaN,18.6,153.6,192.2,1105229232,1105229231,1,2.0,000431,000431,189.2,31.397675,-121.978663,0.04,NaN,NaN,14.924, NaN,NaN,NaN, NaN, NaN
20050109,000740,434638,31.397305,-121.978740,11.9,14.921,33.031,40.676,149.14,0.0,2.275,14.673,14.645, NaN,24.471,   NaN,15.72,1012.26,99.90,16.02,358.9,3.0,7.8,7.8,189.7,193.7,6.8,6.8,NaN, NaN,15.1,200.0,209.9,1105229261,1105229261,1,1.7,000460,000461,187.8,31.397393,-121.978688,-0.26,NaN,NaN,14.925, NaN,NaN,NaN, NaN, NaN
20050109,000812,434670,31.396987,-121.978760,11.9,14.925,33.030,40.679,151.09,0.0,2.275,14.676,14.646, NaN,24.469,   NaN,15.72,1012.32,99.92,16.01,2.6,4.5,7.9,8.1,192.7,194.8,6.8,7.0,NaN, NaN,12.3,258.2,227.3,1105229292,1105229291,1,2.6,000491,000491,191.4,31.397098,-121.978700,-0.34,NaN,NaN,14.929, NaN,NaN,NaN, NaN, NaN
20050109,000840,434698,31.396720,-121.978776,12.0,14.924,33.028,40.676,153.80,0.0,2.313,14.679,14.648, NaN,24.469,   NaN,15.73,1012.29,99.97,16.03,0.1,2.4,7.9,8.0,191.8,194.4,6.9,7.0,NaN, NaN,14.5,216.3,184.9,1105229321,1105229321,1,2.3,000520,000521,192.2,31.396813,-121.978718,-0.11,NaN,NaN,14.928, NaN,NaN,NaN, NaN, NaN
20050109,000911,434729,31.396438,-121.978818,12.0,14.927,33.030,40.680,154.16,0.0,2.275,14.680,14.647, NaN,24.469,   NaN,15.73,1012.30,99.94,16.01,359.3,0.5,8.0,8.0,191.8,193.5,7.0,7.0,NaN, NaN,14.2,127.6,165.9,1105229351,1105229351,1,2.0,000551,000551,190.7,31.396545,-121.978766,0.10,NaN,NaN,14.931, NaN,NaN,NaN, NaN, NaN
20050109,000942,434761,31.396157,-121.978876,11.9,14.926,33.030,40.680,157.45,0.0,2.275,14.680,14.648, NaN,24.470,   NaN,15.71,1012.29,99.94,16.02,0.7,2.3,8.0,8.2,191.3,193.5,7.0,7.2,NaN, NaN,14.4,167.5,185.7,1105229382,1105229382,1,2.1,000581,000582,184.4,31.396253,-121.978833,0.13,NaN,NaN,14.930, NaN,NaN,NaN, NaN, NaN
20050109,001011,434789,31.395757,-121.978906,12.4,14.929,33.028,40.680,160.44,0.0,2.256,14.683,14.649, NaN,24.467,   NaN,15.73,1012.28,99.98,16.03,4.8,7.1,8.4,8.7,190.3,193.1,7.1,7.4,NaN, NaN,14.4,192.2,204.4,1105229411,1105229411,1,3.5,000611,000611,180.1,31.395868,-121.978870,-0.16,NaN,NaN,14.933, NaN,NaN,NaN, NaN, NaN
20050109,001042,434820,31.395282,-121.978883,12.1,14.931,33.028,40.682,162.38,0.0,2.313,14.684,14.650, NaN,24.467,   NaN,15.73,1012.24,99.96,16.02,7.1,9.0,8.7,8.9,190.7,193.2,7.1,7.4,NaN, NaN,14.2,188.7,185.5,1105229442,1105229442,1,3.5,000641,000642,183.8,31.395373,-121.978851,-0.04,NaN,NaN,14.935, NaN,NaN,NaN, NaN, NaN
20050109,001111,434850,31.394773,-121.978918,11.9,14.930,33.015,40.667,164.80,0.0,2.256,14.684,14.653, NaN,24.457,   NaN,15.73,1012.21,100.00,73.67,5.2,6.9,8.9,9.3,190.4,192.7,7.1,7.5,NaN, NaN,14.6,189.1,188.9,1105229471,1105229471,1,4.0,000671,000671,184.9,31.394873,-121.978860,-0.06,NaN,NaN,14.934, NaN,NaN,NaN, NaN, NaN
20050109,001142,434881,31.394265,-121.978928,12.0,14.931,33.031,40.685,167.94,0.0,2.294,14.684,14.652, NaN,24.469,   NaN,15.77,1012.15,100.00,27.85,4.3,5.8,9.3,9.9,190.4,192.4,7.6,8.0,NaN, NaN,14.3,186.1,181.5,1105229502,1105229502,1,3.7,000701,000702,186.1,31.394345,-121.978875,-0.05,NaN,NaN,14.935, NaN,NaN,NaN, NaN, NaN
20050109,001211,434909,31.393788,-121.978956,12.0,14.933,33.031,40.687,171.54,0.0,2.237,14.684,14.653, NaN,24.469,   NaN,15.79,1012.20,100.00,40.34,4.1,5.6,9.6,10.1,190.4,192.3,7.9,8.3,NaN, NaN,14.8,196.4,191.3,1105229531,1105229531,1,3.2,000731,000731,184.2,31.393887,-121.978911,-0.14,NaN,NaN,14.937, NaN,NaN,NaN, NaN, NaN
20050109,001241,434939,31.393342,-121.978935,12.0,14.933,33.027,40.683,175.75,0.0,2.294,14.686,14.655, NaN,24.466,   NaN,15.80,1012.23,28.20,16.07,3.3,5.5,9.5,9.9,189.9,192.3,7.8,8.3,NaN, NaN,16.5,129.7,147.1,1105229561,1105229561,1,4.8,000761,000761,187.9,31.393440,-121.978890,-0.10,NaN,NaN,14.937, NaN,NaN,NaN, NaN, NaN
20050109,001312,434970,31.392965,-121.979000,12.0,14.938,33.027,40.688,178.46,0.0,2.294,14.689,14.658, NaN,24.465,   NaN,15.79,1012.19,99.99,16.07,358.9,3.7,9.1,9.6,185.5,190.6,7.6,8.2,NaN, NaN,15.1,128.3,157.0,1105229592,1105229592,1,2.8,000791,000792,187.3,31.393050,-121.978920,0.11,NaN,NaN,14.942, NaN,NaN,NaN, NaN, NaN
20050109,001342,435000,31.392630,-121.978996,11.9,14.943,33.027,40.693,182.83,0.0,2.294,14.691,14.664, NaN,24.464,   NaN,15.80,1012.25,41.35,16.08,358.1,2.2,8.9,9.5,186.2,190.1,7.8,8.3,NaN, NaN,15.4,192.6,195.9,1105229622,1105229621,1,2.1,000821,000821,186.3,31.392735,-121.978950,-0.33,NaN,NaN,14.947, NaN,NaN,NaN, NaN, NaN
20050109,001412,435030,31.392320,-121.979038,11.9,14.944,33.027,40.694,184.03,0.0,2.275,14.697,14.666, NaN,24.463,   NaN,15.79,1012.21,99.99,16.08,3.6,2.0,8.7,9.2,192.6,190.0,7.5,8.1,NaN, NaN,15.5,136.1,184.1,1105229652,1105229651,1,2.1,000851,000851,188.2,31.392418,-121.978966,0.21,NaN,NaN,14.948, NaN,NaN,NaN, NaN, NaN
20050109,001442,435061,31.392010,-121.979051,12.1,14.946,33.032,40.700,184.64,0.0,2.275,14.697,14.668, NaN,24.467,   NaN,15.78,1012.25,99.99,16.05,3.0,2.7,8.6,9.0,191.1,190.4,7.4,7.9,NaN, NaN,15.4,256.3,214.1,1105229682,1105229682,1,2.7,000882,000882,186.9,31.392107,-121.978981,-0.29,NaN,NaN,14.950, NaN,NaN,NaN, NaN, NaN
20050109,001512,435091,31.391722,-121.979053,11.9,14.947,33.032,40.702,183.54,0.0,2.294,14.698,14.670, NaN,24.467,   NaN,15.77,1012.27,99.97,16.03,1.6,4.0,8.8,8.8,188.3,190.9,7.7,7.8,NaN, NaN,15.5,190.3,195.9,1105229711,1105229711,1,2.1,000911,000911,185.1,31.391823,-121.978996,-0.07,NaN,NaN,14.951, NaN,NaN,NaN, NaN, NaN
20050109,001542,435120,31.391418,-121.979033,12.0,14.948,33.035,40.706,180.16,0.0,2.275,14.699,14.671, NaN,24.469,   NaN,15.77,1012.30,99.97,16.05,2.5,5.4,8.7,8.9,189.4,192.6,7.7,7.9,NaN, NaN,17.1,136.2,148.3,1105229742,1105229742,1,2.6,000941,000942,186.3,31.391512,-121.978978,-0.30,NaN,NaN,14.952, NaN,NaN,NaN, NaN, NaN
20050109,001612,435150,31.391125,-121.979055,12.0,14.950,33.037,40.710,174.85,0.0,2.294,14.699,14.672, NaN,24.470,   NaN,15.78,1012.33,43.72,16.08,3.5,5.4,8.8,9.2,191.2,193.3,7.8,8.1,NaN, NaN,15.7,213.5,170.7,1105229772,1105229771,1,1.9,000971,000971,186.2,31.391227,-121.978996,-0.13,NaN,NaN,14.954, NaN,NaN,NaN, NaN, NaN
20050109,001642,435180,31.390842,-121.979070,11.9,14.948,33.038,40.709,167.79,0.0,2.294,14.699,14.672, NaN,24.471,   NaN,15.78,1012.35,100.00,16.06,5.3,7.0,9.0,9.0,191.8,193.7,7.9,8.0,NaN, NaN,15.5,121.4,170.3,1105229802,1105229801,1,1.8,001001,001001,182.6,31.390948,-121.979025,-0.03,NaN,NaN,14.952, NaN,NaN,NaN, NaN, NaN
20050109,001712,435211,31.390620,-121.979050,11.9,14.948,33.045,40.716,159.25,0.0,2.275,14.699,14.672, NaN,24.476,   NaN,15.78,1012.43,93.93,16.08,9.3,10.9,8.4,8.6,193.5,195.2,7.5,7.8,NaN, NaN,16.6,138.2,153.6,1105229832,1105229832,1,1.7,001032,001032,181.2,31.390730,-121.979011,-0.20,NaN,NaN,14.952, NaN,NaN,NaN, NaN, NaN
20050109,001741,435239,31.390482,-121.979008,11.9,14.947,33.041,40.711,150.79,0.0,2.350,14.698,14.670, NaN,24.473,   NaN,15.76,1012.47,99.96,16.05,11.9,13.1,7.8,8.0,195.4,196.5,7.1,7.4,NaN, NaN,16.8,117.9,128.7,1105229862,1105229861,1,1.4,001061,001061,184.1,31.390588,-121.978958,-0.34,NaN,NaN,14.951, NaN,NaN,NaN, NaN, NaN
20050109,001812,435271,31.390317,-121.978978,11.9,14.950,33.041,40.714,142.63,0.0,2.313,14.699,14.672, NaN,24.473,   NaN,15.78,1012.46,100.00,56.85,9.4,11.0,7.7,8.1,195.6,196.9,7.2,7.7,NaN, NaN,16.1,107.6,119.8,1105229892,1105229892,1,2.7,001091,001092,187.2,31.390420,-121.978903,-0.12,NaN,NaN,14.954, NaN,NaN,NaN, NaN, NaN
20050109,001842,435300,31.390230,-121.978955,11.9,14.949,33.046,40.720,136.38,0.0,2.256,14.701,14.672, NaN,24.477,   NaN,15.78,1012.50,80.12,16.07,9.5,11.3,7.6,8.2,196.4,197.5,7.2,7.8,NaN, NaN,15.8,100.8,217.4,1105229922,1105229922,1,0.6,001122,001122,179.7,31.390340,-121.978905,-0.32,NaN,NaN,14.953, NaN,NaN,NaN, NaN, NaN
20050109,001912,435330,31.390138,-121.978893,11.9,14.950,33.040,40.713,131.83,0.0,2.256,14.700,14.670, NaN,24.472,   NaN,15.77,1012.50,99.99,16.04,15.6,15.2,7.4,7.9,198.7,198.0,7.2,7.6,NaN, NaN,15.3,252.2,236.1,1105229952,1105229952,1,1.2,001151,001152,180.1,31.390237,-121.978851,-0.33,NaN,NaN,14.954, NaN,NaN,NaN, NaN, NaN
20050109,001942,435360,31.389980,-121.978848,12.0,14.950,33.040,40.713,128.72,0.0,2.275,14.704,14.673, NaN,24.472,   NaN,15.76,1012.50,66.29,16.06,14.0,15.1,7.4,7.9,197.6,198.6,7.0,7.5,NaN, NaN,16.2,136.7,175.6,1105229982,1105229982,1,1.5,001182,001182,186.4,31.390088,-121.978791,-0.32,NaN,NaN,14.954, NaN,NaN,NaN, NaN, NaN
20050109,002012,435391,31.389812,-121.978795,12.0,14.950,33.040,40.713,126.21,0.0,2.275,14.704,14.672, NaN,24.472,   NaN,15.78,1012.54,70.67,16.07,8.5,11.1,7.6,7.9,197.8,200.3,7.1,7.5,NaN, NaN,17.0,245.6,200.3,1105230012,1105230012,1,1.4,001211,001212,192.9,31.389913,-121.978745,-0.23,NaN,NaN,14.954, NaN,NaN,NaN, NaN, NaN
20050109,002042,435421,31.389635,-121.978828,11.9,14.951,33.052,40.727,123.93,0.0,2.294,14.705,14.672, NaN,24.481,   NaN,15.79,1012.49,100.00,37.99,1.7,5.9,7.7,8.0,195.0,199.3,7.2,7.5,NaN, NaN,16.3,260.1,218.9,1105230042,1105230041,1,1.6,001241,001241,193.9,31.389732,-121.978746,0.04,NaN,NaN,14.955, NaN,NaN,NaN, NaN, NaN
20050109,002112,435451,31.389438,-121.978836,11.9,14.949,33.044,40.716,121.63,0.0,2.256,14.704,14.672, NaN,24.475,   NaN,15.78,1012.54,100.00,22.14,357.6,1.7,7.5,8.1,194.6,198.7,6.9,7.5,NaN, NaN,15.3,121.7,176.7,1105230073,1105230072,1,1.5,001272,001272,198.7,31.389537,-121.978755,0.00,NaN,NaN,14.953, NaN,NaN,NaN, NaN, NaN
20050109,002142,435480,31.389257,-121.978846,12.0,14.951,33.040,40.714,120.14,0.0,2.275,14.702,14.670, NaN,24.472,   NaN,15.80,1012.54,100.00,21.47,358.3,0.3,7.8,8.1,196.7,198.9,7.1,7.5,NaN, NaN,15.9,252.2,238.5,1105230102,1105230102,1,1.8,001301,001302,195.2,31.389350,-121.978790,-0.18,NaN,NaN,14.955, NaN,NaN,NaN, NaN, NaN
20050109,002212,435510,31.389052,-121.978896,12.0,14.953,33.037,40.712,119.67,0.0,2.294,14.706,14.674, NaN,24.469,   NaN,15.78,1012.54,91.23,16.06,1.3,3.2,7.9,8.2,197.3,199.2,7.2,7.5,NaN, NaN,16.3,190.9,210.7,1105230132,1105230132,1,1.4,001332,001332,190.4,31.389158,-121.978841,-0.01,NaN,NaN,14.957, NaN,NaN,NaN, NaN, NaN
20050109,002242,435540,31.388827,-121.978933,12.0,14.954,33.038,40.715,119.87,0.0,2.369,14.706,14.671, NaN,24.470,   NaN,15.78,1012.52,89.21,16.06,6.0,8.0,7.9,8.2,197.7,199.7,7.2,7.4,NaN, NaN,15.6,205.3,206.6,1105230163,1105230163,1,2.0,001362,001363,186.2,31.388923,-121.978880,-0.08,NaN,NaN,14.958, NaN,NaN,NaN, NaN, NaN
20050109,002312,435571,31.388578,-121.978943,12.0,14.955,33.039,40.716,121.33,0.0,2.350,14.708,14.674, NaN,24.470,   NaN,15.77,1012.53,99.99,16.04,9.9,11.0,8.1,8.3,198.2,199.5,7.2,7.5,NaN, NaN,15.7,217.5,219.6,1105230192,1105230192,1,2.1,001392,001392,186.2,31.388677,-121.978885,-0.18,NaN,NaN,14.959, NaN,NaN,NaN, NaN, NaN
20050109,002342,435601,31.388305,-121.978930,12.0,14.954,33.041,40.719,123.27,0.0,2.294,14.706,14.673, NaN,24.472,   NaN,15.76,1012.52,100.00,16.06,8.5,10.7,8.1,8.5,197.1,199.4,7.2,7.6,NaN, NaN,16.6,244.3,220.2,1105230222,1105230222,1,2.6,001421,001422,187.8,31.388402,-121.978878,-0.38,NaN,NaN,14.958, NaN,NaN,NaN, NaN, NaN
20050109,002413,435632,31.388033,-121.978955,11.8,14.956,33.040,40.720,125.94,0.0,2.313,14.708,14.675, NaN,24.471,   NaN,15.78,1012.51,82.13,16.05,4.8,7.7,8.5,8.8,195.2,198.3,7.5,7.9,NaN, NaN,16.2,115.8,185.3,1105230252,1105230252,1,1.7,001452,001452,192.4,31.388133,-121.978891,-0.23,NaN,NaN,14.960, NaN,NaN,NaN, NaN, NaN
20050109,002443,435662,31.387805,-121.978973,11.9,14.951,33.046,40.722,127.97,0.0,2.313,14.707,14.674, NaN,24.477,   NaN,15.79,1012.51,60.57,16.08,3.3,3.8,8.6,8.8,196.5,197.1,7.7,7.9,NaN, NaN,17.3,198.3,172.0,1105230283,1105230283,1,2.1,001482,001483,194.2,31.387897,-121.978900,0.01,NaN,NaN,14.955, NaN,NaN,NaN, NaN, NaN
20050109,002512,435690,31.387603,-121.978990,11.9,14.951,33.049,40.724,128.61,0.0,2.313,14.707,14.672, NaN,24.479,   NaN,15.77,1012.54,99.98,16.06,1.7,1.8,8.1,8.5,196.0,195.8,7.3,7.8,NaN, NaN,16.6,103.9,140.0,1105230313,1105230312,1,1.7,001512,001512,193.1,31.387705,-121.978926,0.07,NaN,NaN,14.955, NaN,NaN,NaN, NaN, NaN
20050109,002543,435721,31.387425,-121.979003,11.9,14.952,33.050,40.727,128.70,0.0,2.331,14.707,14.674, NaN,24.480,   NaN,15.76,1012.50,99.99,16.06,0.0,2.2,7.9,8.4,194.6,196.7,7.2,7.8,NaN, NaN,18.1,213.6,176.7,1105230343,1105230343,1,1.5,001542,001543,191.3,31.387517,-121.978935,-0.09,NaN,NaN,14.956, NaN,NaN,NaN, NaN, NaN
20050109,002612,435751,31.387222,-121.979045,11.9,14.953,33.042,40.719,127.22,0.0,2.350,14.708,14.675, NaN,24.473,   NaN,15.78,1012.51,26.18,16.07,3.5,4.1,8.3,8.7,195.7,196.3,7.6,8.1,NaN, NaN,16.5,128.4,207.8,1105230372,1105230372,1,1.4,001572,001572,189.2,31.387325,-121.978981,0.08,NaN,NaN,14.957, NaN,NaN,NaN, NaN, NaN
20050109,002642,435781,31.387023,-121.979060,11.9,14.956,33.042,40.722,125.01,0.0,2.350,14.708,14.675, NaN,24.472,   NaN,15.80,1012.50,100.00,49.11,3.4,5.4,8.8,9.2,194.7,196.7,8.1,8.5,NaN, NaN,17.0,226.5,194.0,1105230402,1105230402,1,1.1,001602,001602,189.6,31.387128,-121.978996,0.02,NaN,NaN,14.960, NaN,NaN,NaN, NaN, NaN
20050109,002713,435812,31.386825,-121.979070,11.9,14.961,33.042,40.726,122.29,0.0,2.350,14.708,14.675, NaN,24.471,   NaN,15.81,1012.53,27.88,16.10,2.2,6.8,8.6,9.1,192.2,197.1,7.9,8.4,NaN, NaN,17.3,116.2,139.0,1105230433,1105230433,1,2.2,001632,001633,188.4,31.386925,-121.979011,0.01,NaN,NaN,14.965, NaN,NaN,NaN, NaN, NaN
20050109,002743,435842,31.386617,-121.979098,12.1,14.958,33.043,40.724,119.60,0.0,2.388,14.710,14.677, NaN,24.473,   NaN,15.80,1012.52,100.00,59.21,4.5,8.1,8.6,8.9,193.5,197.4,7.8,8.2,NaN, NaN,17.2,258.2,200.2,1105230463,1105230463,1,1.7,001662,001663,185.9,31.386713,-121.979041,-0.11,NaN,NaN,14.962, NaN,NaN,NaN, NaN, NaN
20050109,002812,435870,31.386385,-121.979095,12.1,14.957,33.038,40.717,115.56,0.0,2.388,14.710,14.677, NaN,24.469,   NaN,15.80,1012.51,100.00,52.15,6.2,9.5,8.8,9.1,193.7,197.1,8.0,8.4,NaN, NaN,16.4,180.0,189.6,1105230493,1105230493,1,1.6,001692,001693,187.4,31.386485,-121.979036,-0.09,NaN,NaN,14.961, NaN,NaN,NaN, NaN, NaN
20050109,002842,435901,31.386130,-121.979093,12.0,14.958,33.045,40.727,110.54,0.0,2.350,14.710,14.677, NaN,24.474,   NaN,15.80,1012.53,67.31,16.09,4.8,8.2,8.7,9.1,194.1,197.7,7.8,8.3,NaN, NaN,16.0,129.2,149.1,1105230522,1105230522,1,2.6,001722,001722,191.9,31.386250,-121.979030,-0.04,NaN,NaN,14.962, NaN,NaN,NaN, NaN, NaN
20050109,002913,435931,31.385880,-121.979153,12.2,14.957,33.050,40.731,103.50,0.0,2.313,14.712,14.677, NaN,24.478,   NaN,15.79,1012.56,93.93,16.08,0.8,3.9,8.6,9.0,192.7,196.0,7.7,8.2,NaN, NaN,16.3,184.5,202.9,1105230553,1105230553,1,1.6,001752,001753,192.9,31.385992,-121.979076,-0.34,NaN,NaN,14.961, NaN,NaN,NaN, NaN, NaN
20050109,002943,435962,31.385607,-121.979181,12.0,14.960,33.047,40.730,96.21,0.0,2.388,14.713,14.680, NaN,24.475,   NaN,15.79,1012.55,48.10,16.09,0.1,3.2,8.7,9.1,192.7,196.0,7.8,8.2,NaN, NaN,16.2,214.2,222.3,1105230583,1105230583,1,2.3,001783,001783,187.6,31.385723,-121.979115,-0.12,NaN,NaN,14.964, NaN,NaN,NaN, NaN, NaN
20050109,003013,435992,31.385317,-121.979160,12.0,14.962,33.045,40.730,90.03,0.0,2.350,14.714,14.681, NaN,24.473,   NaN,15.78,1012.61,93.93,16.07,3.9,6.4,8.8,8.9,194.0,196.6,7.8,8.0,NaN, NaN,16.4,204.9,178.1,1105230613,1105230613,1,2.2,001812,001813,186.6,31.385428,-121.979118,-0.10,NaN,NaN,14.966, NaN,NaN,NaN, NaN, NaN
20050109,003043,436022,31.385068,-121.979203,11.8,14.961,33.046,40.731,85.25,0.0,2.388,14.714,14.681, NaN,24.474,   NaN,15.78,1012.59,100.00,52.81,6.0,9.1,8.8,9.0,194.2,197.1,7.9,8.1,NaN, NaN,16.8,152.2,173.9,1105230643,1105230643,1,1.7,001842,001843,186.1,31.385170,-121.979136,-0.25,NaN,NaN,14.965, NaN,NaN,NaN, NaN, NaN
20050109,003112,436050,31.384858,-121.979181,11.9,14.963,33.049,40.735,81.05,0.0,2.388,14.714,14.681, NaN,24.476,   NaN,15.80,1012.60,100.00,33.61,6.1,9.5,8.6,9.0,194.6,197.9,7.8,8.2,NaN, NaN,16.1,132.1,198.1,1105230673,1105230672,1,1.2,001872,001872,188.0,31.384982,-121.979125,-0.18,NaN,NaN,14.967, NaN,NaN,NaN, NaN, NaN
20050109,003143,436081,31.384692,-121.979156,12.0,14.963,33.046,40.733,77.05,0.0,2.369,14.714,14.682, NaN,24.474,   NaN,15.79,1012.58,100.00,62.58,5.9,8.3,8.3,8.6,195.5,198.0,7.7,8.0,NaN, NaN,17.1,283.7,225.8,1105230703,1105230703,1,1.3,001903,001903,189.9,31.384810,-121.979090,-0.12,NaN,NaN,14.967, NaN,NaN,NaN, NaN, NaN
20050109,003213,436111,31.384548,-121.979146,11.9,14.965,33.043,40.731,73.09,0.0,2.350,14.714,14.682, NaN,24.471,   NaN,15.79,1012.62,43.70,16.07,4.3,5.8,8.1,8.4,196.2,197.6,7.6,7.9,NaN, NaN,16.2,117.6,208.2,1105230734,1105230733,1,0.9,001933,001933,193.2,31.384665,-121.979078,-0.29,NaN,NaN,14.969, NaN,NaN,NaN, NaN, NaN
20050109,003243,436142,31.384385,-121.979143,12.0,14.965,33.045,40.733,69.04,0.0,2.388,14.715,14.682, NaN,24.473,   NaN,15.79,1012.63,100.00,42.02,5.3,2.8,8.0,8.4,200.7,198.2,7.6,7.9,NaN, NaN,16.7,226.2,206.8,1105230763,1105230763,1,1.4,001963,001963,195.9,31.384495,-121.979071,-0.09,NaN,NaN,14.969, NaN,NaN,NaN, NaN, NaN
20050109,003313,436172,31.384210,-121.979176,11.9,14.967,33.049,40.739,65.13,0.0,2.331,14.716,14.683, NaN,24.475,   NaN,15.79,1012.61,100.00,21.79,2.7,1.5,8.3,8.7,198.8,197.8,7.9,8.2,NaN, NaN,16.0,174.0,208.1,1105230793,1105230792,1,1.2,001992,001992,193.9,31.384323,-121.979101,-0.16,NaN,NaN,14.971, NaN,NaN,NaN, NaN, NaN
20050109,003342,436200,31.384002,-121.979188,12.1,14.966,33.047,40.736,60.16,0.0,2.426,14.717,14.683, NaN,24.474,   NaN,15.80,1012.66,100.00,21.81,359.6,2.1,8.5,8.9,195.4,197.9,7.8,8.2,NaN, NaN,15.1,247.8,235.4,1105230823,1105230823,1,1.9,002022,002023,193.7,31.384105,-121.979130,-0.05,NaN,NaN,14.970, NaN,NaN,NaN, NaN, NaN
20050109,003414,436233,31.383765,-121.979241,12.1,14.966,33.048,40.737,55.90,0.0,2.388,14.718,14.685, NaN,24.474,   NaN,15.80,1012.67,31.25,16.09,1.7,3.7,8.4,8.8,195.6,197.4,7.6,8.0,NaN, NaN,16.6,237.1,219.7,1105230853,1105230853,1,2.3,002053,002053,189.9,31.383878,-121.979176,-0.14,NaN,NaN,14.970, NaN,NaN,NaN, NaN, NaN
20050109,003443,436261,31.383533,-121.979210,12.2,14.965,33.048,40.736,51.50,0.0,2.350,14.718,14.685, NaN,24.475,   NaN,15.79,1012.65,100.00,31.93,3.1,5.4,8.6,8.7,195.0,196.9,7.8,7.9,NaN, NaN,14.9,136.7,141.9,1105230883,1105230883,1,3.0,002082,002083,186.5,31.383637,-121.979160,-0.04,NaN,NaN,14.969, NaN,NaN,NaN, NaN, NaN
20050109,003513,436291,31.383283,-121.979253,12.0,14.966,33.050,40.739,46.70,0.0,2.426,14.718,14.687, NaN,24.477,   NaN,15.81,1012.64,100.00,16.09,3.7,7.0,8.7,9.0,192.6,195.7,7.9,8.2,NaN, NaN,14.9,143.6,174.0,1105230914,1105230913,1,1.6,002113,002113,187.8,31.383390,-121.979181,-0.23,NaN,NaN,14.970, NaN,NaN,NaN, NaN, NaN
20050109,003543,436322,31.383053,-121.979275,12.1,14.965,33.050,40.738,42.28,0.0,2.445,14.718,14.685, NaN,24.476,   NaN,15.80,1012.70,100.00,16.06,4.6,7.8,8.3,9.0,194.0,197.2,7.5,8.1,NaN, NaN,14.4,194.1,208.3,1105230943,1105230943,1,2.0,002142,002143,189.2,31.383152,-121.979200,-0.13,NaN,NaN,14.969, NaN,NaN,NaN, NaN, NaN
20050109,003613,436352,31.382782,-121.979258,12.0,14.966,33.051,40.740,37.01,0.0,2.388,14.718,14.684, NaN,24.477,   NaN,15.82,1012.72,100.00,16.08,5.2,8.0,8.5,9.1,195.8,198.8,7.6,8.3,NaN, NaN,17.5,127.7,153.3,1105230973,1105230973,1,2.1,002173,002173,190.9,31.382898,-121.979195,-0.30,NaN,NaN,14.970, NaN,NaN,NaN, NaN, NaN